GW4499 Weather Reports


time (UTC)temp
C
wind
direction
speed
KPH
gust
KPH
rain 1hr
cm
rain 24hr
cm
rain mn
cm
humidity
%
barometer
mb
20260504214518 16 315 1.6 4.8 0.03 0.03 0.03 42 1005.4
20260504213519 16 0.0 4.8 0.03 0.03 0.03 48 1005.6
20260504212519 16 315 3.2 8.0 0.03 0.03 0.03 52 1005.1
20260504211539 15 0.0 1.6 0.03 0.03 0.03 53 1005.1
20260504210518 15 0.0 1.6 0.03 0.03 0.03 56 1005.5
20260504205519 16 315 4.8 12.9 0.00 0.00 0.00 44 1006.1
20260504204518 16 315 3.2 6.4 0.00 0.00 0.00 39 1006.5
20260504203519 16 315 1.6 6.4 0.00 0.00 0.00 40 1006.8
20260504202518 16 0.0 3.2 0.00 0.00 0.00 41 1006.8
20260504201518 16 0.0 1.6 0.00 0.00 0.00 41 1006.8
20260504200518 16 0.0 3.2 0.00 0.00 0.00 41 1007.4
20260504195519 16 315 1.6 12.9 0.00 0.00 0.00 41 1007.5
20260504194539 16 315 4.8 12.9 0.00 0.00 0.00 40 1007.4
20260504193540 17 315 6.4 11.3 0.00 0.00 0.00 41 1007.3
20260504192520 18 315 3.2 6.4 0.00 0.00 0.00 33 1007.1
20260504191518 18 0 1.6 4.8 0.00 0.00 0.00 34 1006.7
20260504190541 19 315 3.2 6.4 0.00 0.00 0.00 31 1007.2
20260504185540 20 293 1.6 6.4 0.00 0.00 0.00 24 1006.9
20260504184520 21 0.0 3.2 0.00 0.00 0.00 23 1007.1
20260504183601 21 0.0 3.2 0.00 0.00 0.00 23 1007.5
20260504182520 21 315 1.6 3.2 0.00 0.00 0.00 21 1007.4
20260504181540 21 0 1.6 8.0 0.00 0.00 0.00 21 1007.4
20260504180520 22 338 4.8 9.7 0.00 0.00 0.00 20 1007.8
20260504175520 23 315 1.6 6.4 0.00 0.00 0.00 19 1008.1
20260504174520 23 315 3.2 8.0 0.00 0.00 0.00 18 1008.2
20260504173520 23 315 3.2 8.0 0.00 0.00 0.00 18 1008.7
20260504172520 23 0.0 4.8 0.00 0.00 0.00 21 1008.9
20260504171520 23 293 1.6 3.2 0.00 0.00 0.00 21 1008.9
20260504170518 22 338 1.6 9.7 0.00 0.00 0.00 21 1009.0
20260504150520 13 0.0 1.6 0.00 0.00 0.00 48 1008.0
20260504140520 8 0.0 1.6 0.00 0.00 0.00 65 1007.8
20260504130519 5 0.0 0.0 0.00 0.00 0.00 80 1007.2
20260504110522 4 0.0 0.0 0.00 0.00 0.00 74 1007.5
20260504100519 5 0.0 3.2 0.00 0.00 0.00 65 1008.5
20260504081519 7 0.0 0.0 0.00 0.00 0.00 61 1009.9
20260504080519 8 0.0 0.0 0.00 0.00 0.00 59 1010.4
20260504050519 14 0.0 3.2 0.00 0.00 0.00 35 1013.0
20260504045519 14 0.0 1.6 0.00 0.00 0.00 35 1012.3
20260504044520 15 0.0 1.6 0.00 0.00 0.00 34 1012.7
20260504043519 15 0.0 0.0 0.00 0.00 0.00 32 1012.5
20260504042539 16 0.0 1.6 0.00 0.00 0.00 31 1012.1
20260504041519 16 315 1.6 4.8 0.00 0.00 0.00 31 1012.3
20260504040519 16 0.0 3.2 0.00 0.00 0.00 29 1012.2
20260504035541 17 0.0 1.6 0.00 0.00 0.00 27 1012.2
20260504034519 17 293 1.6 4.8 0.00 0.00 0.00 26 1012.2
20260504033519 17 0.0 3.2 0.00 0.00 0.00 25 1011.7
20260504032519 17 0.0 1.6 0.00 0.00 0.00 25 1011.0
20260504031519 17 0.0 3.2 0.00 0.00 0.00 27 1010.9
20260504030519 16 338 1.6 4.8 0.00 0.00 0.00 31 1010.4
20260504025519 16 0.0 1.6 0.00 0.00 0.00 32 1009.9
20260504024519 16 0.0 3.2 0.00 0.00 0.00 32 1009.8
20260504023519 16 0.0 1.6 0.00 0.00 0.00 33 1009.5
20260504022539 17 0.0 0.0 0.00 0.00 0.00 32 1008.5
20260504021539 17 0.0 0.0 0.00 0.00 0.00 29 1008.8
20260504020519 18 0.0 0.0 0.00 0.00 0.00 28 1008.7
20260504015519 18 0.0 0.0 0.00 0.00 0.00 27 1008.0
20260504014519 19 0.0 0.0 0.00 0.00 0.00 26 1008.2
20260504013519 19 0.0 1.6 0.00 0.00 0.00 25 1008.2
20260504012519 19 0.0 0.0 0.00 0.00 0.00 24 1007.6
20260504011519 20 0.0 0.0 0.00 0.00 0.00 24 1007.7
20260504010518 20 0.0 0.0 0.00 0.00 0.00 23 1007.6
20260504005519 20 0.0 0.0 0.00 0.00 0.00 24 1007.8
20260504004519 21 0.0 0.0 0.00 0.00 0.00 22 1007.8
20260504003519 21 0.0 0.0 0.00 0.00 0.00 21 1007.8
20260504002519 21 0.0 0.0 0.00 0.00 0.00 21 1007.6
20260504001518 21 0.0 0.0 0.00 0.00 0.00 20 1007.6
20260504000519 21 203 1.6 3.2 0.00 0.00 0.00 18 1007.6
20260503235559 21 0.0 1.6 0.00 0.00 0.00 18 1008.0
20260503234518 21 0.0 1.6 0.00 0.00 0.00 18 1008.2
20260503233518 22 0.0 1.6 0.00 0.00 0.00 16 1008.1
20260503232519 22 293 1.6 6.4 0.00 0.00 0.00 15 1008.0
20260503231519 22 315 3.2 14.5 0.00 0.00 0.00 15 1008.2
20260503230519 22 0.0 3.2 0.00 0.00 0.00 15 1008.1
20260503225518 22 0.0 0.0 0.00 0.00 0.00 16 1008.2
20260503224518 22 0.0 3.2 0.00 0.00 0.00 17 1008.2
20260503223539 22 315 1.6 6.4 0.00 0.00 0.00 16 1008.3
20260503222518 22 315 1.6 6.4 0.00 0.00 0.00 17 1008.7
20260503221518 22 315 1.6 6.4 0.00 0.00 0.00 16 1008.9
20260503220518 22 315 1.6 8.0 0.00 0.00 0.00 17 1009.0
20260503215559 22 338 1.6 6.4 0.00 0.00 0.00 17 1009.4